Estació meteorològica de Els Cortals - St. Hilari Sacalm (La Selva, Guilleries)

Consulta les dades en temps real de l'estació meteorològica de Els Cortals - St. Hilari Sacalm





Hora UTC 14:50
Temperatura 27.1 ºC
Humitat 58.0 %
Pressió 1014.8 hPa
Pluja 0.0 mm
Velocitat vent 0.0 km/h
Direcció vent ESE

Dades diàries 2026-09-03



Hora UTC (hivern +1h; estiu +2h)
Temperatura (ºC) Humitat (%) Pressió (hPa) Velocitat vent (km/h) Precipitació (mm)
Hora UTC Aire Humitat Pressió Vel. Dir. Vel. Max Dir. Intent. màx 5 min.
00:05 19.5 76.0 1015.6 0.0 SSW 0.0 0.0
00:10 19.4 76.0 1015.7 0.0 SSW 0.0 0.0
00:15 19.4 76.0 1015.7 0.0 SSW 0.0 0.0
00:20 19.3 76.0 1015.7 0.0 SSW 0.0 0.0
00:25 19.2 76.0 1015.7 0.0 SSW 0.0 0.0
00:30 19.1 76.0 1015.7 0.0 SSW 0.0 0.0
00:35 19.1 76.0 1015.7 0.0 SSW 0.0 0.0
00:40 19.2 76.0 1015.7 0.0 SSW 0.0 0.0
00:45 19.1 75.0 1015.7 0.0 SSW 0.0 0.0
00:50 19.1 75.0 1015.6 0.0 SSW 0.0 0.0
00:55 19.1 75.0 1015.7 0.0 SSW 0.0 0.0
01:00 19.1 75.0 1015.6 0.0 SSW 0.0 0.0
01:05 18.8 75.0 1015.7 0.0 SSW 0.0 0.0
01:10 18.6 76.0 1015.7 0.0 SSW 0.0 0.0
01:15 18.5 76.0 1015.7 0.0 SSW 0.0 0.0
01:20 18.4 77.0 1015.7 0.0 SSW 0.0 0.0
01:25 18.3 77.0 1015.6 0.0 SSW 0.0 0.0
01:30 18.2 77.0 1015.6 0.0 SSW 0.0 0.0
01:35 18.0 78.0 1015.6 0.0 SSW 0.0 0.0
01:40 18.0 78.0 1015.6 0.0 SSW 0.0 0.0
01:45 18.0 79.0 1015.6 0.0 SSW 0.0 0.0
01:50 17.9 79.0 1015.5 0.0 SSW 0.0 0.0
01:55 17.9 79.0 1015.5 0.0 SSW 0.0 0.0
02:00 18.1 80.0 1015.5 0.0 SSW 0.0 0.0
02:05 18.1 80.0 1015.5 0.0 SSW 0.0 0.0
02:10 18.1 80.0 1015.4 0.0 SSW 0.0 0.0
02:15 18.1 80.0 1015.4 0.0 SSW 0.0 0.0
02:20 17.9 80.0 1015.5 0.0 SSW 0.0 0.0
02:25 17.9 80.0 1015.4 0.0 SSW 0.0 0.0
02:30 17.9 80.0 1015.4 0.0 SSW 0.0 0.0
02:35 17.8 81.0 1015.4 0.0 SSW 0.0 0.0
02:40 17.8 81.0 1015.4 0.0 SSW 0.0 0.0
02:45 17.7 81.0 1015.4 0.0 SSW 0.0 0.0
02:50 17.7 81.0 1015.4 0.0 SSW 0.0 0.0
02:55 17.7 81.0 1015.4 0.0 SSW 0.0 0.0
03:00 17.7 81.0 1015.3 0.0 SSW 0.0 0.0
03:05 17.7 81.0 1015.3 0.0 SSW 0.0 0.0
03:10 17.8 81.0 1015.2 0.0 SSW 0.0 0.0
03:15 17.9 81.0 1015.3 0.0 SSW 0.0 0.0
03:20 18.0 81.0 1015.3 0.0 SSW 0.0 0.0
03:25 18.0 81.0 1015.2 0.0 SSW 0.0 0.0
03:30 18.1 81.0 1015.2 0.0 SSW 0.0 0.0
03:35 18.2 81.0 1015.2 0.0 SSW 0.0 0.0
03:40 18.3 80.0 1015.2 0.0 SSW 0.0 0.0
03:45 18.4 80.0 1015.1 0.0 SSW 0.0 0.0
03:50 18.6 79.0 1015.2 0.0 SSW 0.0 0.0
03:55 18.6 79.0 1015.0 0.0 SSW 0.0 0.0
04:00 18.7 79.0 1015.0 0.0 SW 0.0 0.0
04:05 18.7 79.0 1015.0 0.0 SW 0.0 0.0
04:10 18.7 78.0 1014.9 0.0 SW 0.0 0.0
04:15 18.7 78.0 1014.9 0.0 SW 0.0 0.0
04:20 18.7 78.0 1014.9 0.0 SW 0.0 0.0
04:25 18.7 78.0 1014.9 0.0 SW 0.0 0.0
04:30 18.7 79.0 1014.9 0.0 SW 0.0 0.0
04:35 18.6 79.0 1014.9 0.0 SW 0.0 0.0
04:40 18.6 79.0 1014.8 0.0 SW 0.0 0.0
04:45 18.4 79.0 1015.0 0.0 SW 0.0 0.0
04:50 18.3 80.0 1015.0 0.0 SW 0.0 0.0
04:55 18.4 79.0 1015.0 0.0 SW 0.0 0.0
05:00 18.5 79.0 1015.0 0.0 WSW 0.0 0.0
05:05 18.7 78.0 1015.0 0.0 WSW 0.0 0.0
05:10 18.7 78.0 1015.0 0.0 WSW 0.0 0.0
05:15 18.7 78.0 1014.9 0.0 WSW 0.0 0.0
05:20 18.7 78.0 1015.0 0.0 WSW 0.0 0.0
05:25 18.7 78.0 1015.0 0.0 WSW 0.0 0.0
05:30 18.7 78.0 1015.0 0.0 WSW 0.0 0.0
05:35 18.7 78.0 1015.1 0.0 WSW 0.0 0.0
05:40 18.8 78.0 1015.0 0.0 WSW 0.0 0.0
05:45 19.0 78.0 1015.1 0.0 WSW 0.0 0.0
05:50 19.2 78.0 1015.3 0.0 W 0.0 0.0
05:55 19.3 78.0 1015.3 0.0 WNW 0.0 0.0
06:00 19.3 78.0 1015.4 0.0 W 0.0 0.0
06:05 19.4 78.0 1015.4 0.0 W 0.0 0.0
06:10 19.6 77.0 1015.3 0.0 W 0.0 0.0
06:15 19.9 77.0 1015.4 0.0 W 0.0 0.0
06:20 20.1 76.0 1015.5 0.0 W 0.0 0.0
06:25 20.4 74.0 1015.5 0.0 W 0.0 0.0
06:30 20.7 74.0 1015.5 0.0 W 0.0 0.0
06:35 21.1 72.0 1015.6 0.0 W 0.0 0.0
06:40 21.5 71.0 1015.5 0.0 W 0.0 0.0
06:45 21.8 69.0 1015.5 0.0 WSW 0.0 0.0
06:50 22.1 68.0 1015.5 0.0 W 0.0 0.0
06:55 22.3 68.0 1015.5 0.0 SSW 0.0 0.0
07:00 22.5 67.0 1015.5 0.0 WSW 0.0 0.0
07:05 22.7 67.0 1015.6 0.0 WSW 0.0 0.0
07:10 22.9 66.0 1015.4 0.0 W 0.0 0.0
07:15 23.1 65.0 1015.4 0.0 W 0.0 0.0
07:20 23.3 65.0 1015.4 0.0 W 0.0 0.0
07:25 23.6 64.0 1015.6 0.0 W 0.0 0.0
07:30 23.8 63.0 1015.6 0.0 WSW 0.0 0.0
07:35 24.1 63.0 1015.6 0.0 SSW 0.0 0.0
07:40 24.1 62.0 1015.6 0.0 SSW 0.0 0.0
07:45 24.1 62.0 1015.7 0.0 SSW 0.0 0.0
07:50 24.3 63.0 1015.6 0.0 ESE 0.0 0.0
07:55 24.5 64.0 1015.5 0.0 ESE 0.0 0.0
08:00 24.6 64.0 1015.7 0.0 ESE 0.0 0.0
08:05 24.7 63.0 1015.7 0.0 ESE 0.0 0.0
08:10 24.8 63.0 1015.6 0.0 ESE 0.0 0.0
08:15 24.8 63.0 1015.5 0.0 E 1.6 0.0
08:20 24.8 64.0 1015.8 0.0 E 1.6 0.0
08:25 24.7 63.0 1015.8 0.0 E 0.0 0.0
08:30 24.7 63.0 1015.7 0.0 ENE 0.0 0.0
08:35 24.7 63.0 1015.9 0.0 E 0.0 0.0
08:40 24.6 64.0 1015.7 0.0 NE 0.0 0.0
08:45 24.6 64.0 1016.0 0.0 ESE 0.0 0.0
08:50 24.8 63.0 1016.1 0.0 E 0.0 0.0
08:55 25.0 63.0 1016.1 0.0 SSE 0.0 0.0
09:00 25.2 62.0 1016.0 0.0 E 0.0 0.0
09:05 25.1 62.0 1016.1 0.0 SE 0.0 0.0
09:10 25.3 62.0 1016.1 0.0 SE 0.0 0.0
09:15 25.5 61.0 1016.1 0.0 E 0.0 0.0
09:20 25.6 61.0 1016.2 0.0 ENE 0.0 0.0
09:25 25.7 60.0 1016.3 0.0 SE 0.0 0.0
09:30 25.7 60.0 1016.4 0.0 S 0.0 0.0
09:30 25.7 61.0 1016.3 0.0 E 0.0 0.0
09:40 25.7 60.0 1016.4 0.0 S 0.0 0.0
09:45 25.6 60.0 1016.2 0.0 ENE 0.0 0.0
09:50 25.7 60.0 1016.2 0.0 SE 0.0 0.0
09:55 25.7 60.0 1016.2 0.0 E 0.0 0.0
10:00 25.7 60.0 1016.3 0.0 E 0.0 0.0
10:05 25.8 60.0 1016.4 0.0 S 0.0 0.0
10:10 25.9 60.0 1016.2 0.0 NE 0.0 0.0
10:15 26.2 59.0 1016.1 0.0 ENE 0.0 0.0
10:20 26.4 58.0 1016.2 0.0 E 0.0 0.0
10:25 26.4 58.0 1016.2 0.0 S 0.0 0.0
10:30 26.3 58.0 1016.2 0.0 S 0.0 0.0
10:35 26.4 58.0 1016.2 0.0 ENE 0.0 0.0
10:40 26.5 56.0 1016.1 0.0 NE 0.0 0.0
10:45 26.5 57.0 1016.0 0.0 S 0.0 0.0
10:50 26.6 57.0 1016.0 0.0 ENE 0.0 0.0
10:55 26.7 57.0 1015.9 0.0 E 0.0 0.0
11:00 27.0 56.0 1015.8 0.0 NNE 0.0 0.0
11:05 27.0 56.0 1015.8 0.0 SE 0.0 0.0
11:10 26.9 56.0 1015.7 0.0 ENE 0.0 0.0
11:15 27.0 55.0 1015.8 0.0 ENE 0.0 0.0
11:20 27.1 54.0 1015.8 0.0 NNE 0.0 0.0
11:25 27.2 54.0 1015.8 0.0 ENE 0.0 0.0
11:30 27.2 54.0 1015.8 0.0 ESE 0.0 0.0
11:35 27.3 54.0 1016.0 0.0 SSW 0.0 0.0
11:40 27.5 53.0 1015.8 0.0 NE 0.0 0.0
11:45 27.6 53.0 1015.7 0.0 NNE 0.0 0.0
11:50 27.6 52.0 1015.6 0.0 ESE 0.0 0.0
11:55 27.7 53.0 1015.5 0.0 SSW 0.0 0.0
12:00 27.9 52.0 1015.6 0.0 SSE 0.0 0.0
12:05 28.0 53.0 1015.7 0.0 E 0.0 0.0
12:10 27.9 53.0 1015.6 0.0 SE 0.0 0.0
12:15 28.1 54.0 1015.6 0.0 SE 0.0 0.0
12:20 28.1 54.0 1015.5 0.0 E 0.0 0.0
12:25 28.1 55.0 1015.5 0.0 ENE 0.0 0.0
12:30 27.9 55.0 1015.5 0.0 E 0.0 0.0
12:35 27.9 57.0 1015.4 0.0 ESE 0.0 0.0
12:40 28.1 57.0 1015.4 0.0 E 0.0 0.0
12:45 28.0 58.0 1015.3 0.0 ESE 0.0 0.0
12:50 27.8 58.0 1015.3 0.0 ENE 0.0 0.0
12:55 27.7 60.0 1015.2 0.0 ESE 0.0 0.0
13:00 27.8 58.0 1015.3 0.0 SSE 0.0 0.0
13:05 27.7 57.0 1015.4 0.0 E 0.0 0.0
13:10 27.8 59.0 1015.5 0.0 E 0.0 0.0
13:15 27.8 58.0 1015.4 0.0 ENE 0.0 0.0
13:20 27.8 58.0 1015.4 0.0 SSW 0.0 0.0
13:25 27.8 58.0 1015.3 0.0 SE 0.0 0.0
13:30 27.8 58.0 1015.3 0.0 SE 0.0 0.0
13:35 27.8 57.0 1015.2 0.0 E 0.0 0.0
13:40 27.6 58.0 1015.2 0.0 E 0.0 0.0
13:45 27.6 58.0 1015.2 0.0 NE 0.0 0.0
13:50 27.5 58.0 1015.1 0.0 ENE 0.0 0.0
13:55 27.4 58.0 1015.1 0.0 E 0.0 0.0
14:00 27.4 58.0 1015.1 0.0 ENE 0.0 0.0
14:05 27.3 58.0 1015.0 0.0 NNE 0.0 0.0
14:10 27.2 58.0 1015.1 0.0 E 0.0 0.0
14:15 26.9 58.0 1014.9 0.0 ENE 0.0 0.0
14:20 26.9 58.0 1014.9 0.0 E 0.0 0.0
14:25 26.9 58.0 1014.8 0.0 ENE 0.0 0.0
14:30 27.1 58.0 1014.8 0.0 ESE 0.0 0.0
14:35 27.2 57.0 1014.9 0.0 SSE 0.0 0.0
14:40 27.2 57.0 1014.8 0.0 ENE 0.0 0.0
14:45 27.1 58.0 1014.8 0.0 E 0.0 0.0
14:50 27.1 58.0 1014.8 0.0 ESE 0.0 0.0
Màxima 28.1 81.0 1016.4 0.0 ESE 1.6 0.0
Mínima 17.7 52.0 1014.8
Total 0.0